Zurück zum Katalog

KUIPER-00246

AktivKommunikationLEO
NORAD 67151·PAYLOAD·🇺🇸 United States

Gestartet Dec 15, 2025 von Cape Canaveral Space Force Station

Loading…

Nächste Überflüge (nächste 24 Stunden)

TLE

AktuellSource: CelesTrak SupGP

Epoche: Sep 14, 2026, 20:36 UTC

1 67151C 25301U   26257.85842593  .00001556  00000+0  20375-3 0  2570
2 67151  51.8999 311.6103 0000437  80.9985 191.2094 14.79921219    13

Verfolge KUIPER-00246 in Echtzeit mit AllMySat

Download on the App Store